Location: Rounton
(54.4000°N, 1.3500°W)
Time: 20:40:48
(UTC+01:00)

deb Delta 126 - Pass Details

Date: 08 July 2022
Orbit: 1120 x 1970 km, 101.5° (Epoch: 17 August)

Event Time Altitude Azimuth Distance (km) Brightness Sun altitude
Rises 03:10:29 0° 65° (ENE) 4,821 ? -8.9°
Reaches altitude 10° 03:14:20 10° 49° (NE) 3,971 ? -8.6°
Maximum altitude 03:20:24 19° 10° (N) 3,456 ? -8.2°
Drops below altitude 10° 03:26:53 10° 331° (NNW) 4,305 ? -7.7°
Sets 03:31:18 0° 316° (NW) 5,369 ? -7.4°
